Stations météo

réclame
Mon MeteoGroup
Bierset/Liege, Belgique (6478): Température de l'air & dewpoint: 16.01.2018 11:00:00 - 22.01.2018 11:00:00 (CET)Bierset/Liege, Belgique (6478): Vitesse du vent & gusts: 16.01.2018 11:00:00 - 22.01.2018 11:00:00 (CET)Bierset/Liege, Belgique (6478): Direction du vent: 16.01.2018 11:00:00 - 22.01.2018 11:00:00 (CET)Bierset/Liege, Belgique (6478): reduced air pressure: 16.01.2018 11:00:00 - 22.01.2018 11:00:00 (CET)Bierset/Liege, Belgique (6478): visibility: 16.01.2018 11:00:00 - 22.01.2018 11:00:00 (CET)
Date & Time tt [°C] td [°C] ff [km/h] ff [knt] fx [km/h] fx [knt] dd ppp [hPa] vv [km]
22.01.2018 11:00:00 8,0 7,4 11 6 14 8 WNW 1008,3 6
22.01.2018 10:00:00 7,9 7,7 11 6 - - W 1007,9 6
22.01.2018 09:00:00 8,2 7,9 14 8 22 12 W 1007,7 6
22.01.2018 08:00:00 7,6 7,6 11 6 22 12 W 1007,5 3,5
22.01.2018 07:00:00 7,6 7,4 14 8 - - W 1007,3 3,3
22.01.2018 06:00:00 6,4 6,3 18 10 29 16 WSW 1007,0 3,5
22.01.2018 05:00:00 5,6 5,5 18 10 36 19 SW 1007,2 2,4
22.01.2018 04:00:00 4,5 4,5 22 12 - - SSW 1007,1 1,8
22.01.2018 03:00:00 3,7 3,4 22 12 40 21 SSW 1007,7 4,0
22.01.2018 02:00:00 3,1 2,5 29 16 40 21 S 1007,9 13
22.01.2018 01:00:00 2,6 1,8 29 16 - - S 1008,7 3,8
22.01.2018 00:00:00 2,5 1,1 25 14 43 23 S 1009,3 20
21.01.2018 23:00:00 1,9 0,6 29 16 54 29 S 1010,7 5
21.01.2018 22:00:00 1,8 0,2 25 14 - - SSE 1012,3 6
21.01.2018 21:00:00 2,3 -0,1 22 12 43 23 SSE 1013,8 20
21.01.2018 20:00:00 2,7 -0,2 22 12 32 18 S 1014,7 25
21.01.2018 19:00:00 2,7 -0,1 11 6 - - SSE 1015,6 25
21.01.2018 18:00:00 2,7 0,5 14 8 22 12 SSE 1016,2 14
21.01.2018 17:00:00 2,9 0,2 11 6 18 10 SSE 1017,0 16
21.01.2018 16:00:00 3,1 0,2 11 6 - - SSW 1017,4 20
21.01.2018 15:00:00 3,5 0,6 14 8 29 16 S 1017,5 15
21.01.2018 14:00:00 3,2 1,5 14 8 22 12 SSW 1017,9 9
21.01.2018 13:00:00 3,1 1,8 14 8 - - SW 1017,7 6
21.01.2018 12:00:00 2,4 1,5 14 8 22 12 SW 1018,0 3,8
21.01.2018 11:00:00 1,0 0,6 14 8 22 12 WSW 1017,6 2,1
21.01.2018 10:00:00 0,0 -0,2 14 8 - - SW 1017,0 0,6
21.01.2018 09:00:00 -0,1 -0,5 11 6 18 10 W 1016,0 3,5
21.01.2018 08:00:00 -0,1 -0,4 14 8 18 10 W 1015,0 2,8
21.01.2018 07:00:00 0,1 -0,1 11 6 - - W 1013,9 2,1
21.01.2018 06:00:00 0,6 0,3 11 6 22 12 W 1013,0 3,1
21.01.2018 05:00:00 1,5 1,1 14 8 22 12 WNW 1011,9 4,0
21.01.2018 04:00:00 1,4 1,0 11 6 - - WNW 1010,7 3,7
21.01.2018 03:00:00 1,2 1,0 14 8 22 12 WNW 1009,8 2,0
21.01.2018 02:00:00 0,9 0,8 11 6 18 10 WNW 1008,2 1,1
21.01.2018 01:00:00 0,6 0,5 11 6 - - NW 1006,9 0,5
21.01.2018 00:00:00 0,3 0,2 14 8 22 12 NNW 1005,4 0,2
20.01.2018 23:00:00 0,3 0,3 11 6 14 8 NW 1004,1 0,4
20.01.2018 22:00:00 0,1 0,0 7 4 - - NNW 1002,7 0,9
20.01.2018 21:00:00 0,2 0,2 7 4 11 6 NNW 1001,8 1,0
20.01.2018 20:00:00 1,2 1,2 4 2 7 4 N 1000,7 3,0
20.01.2018 19:00:00 1,2 0,9 4 2 - - NW 999,9 6
20.01.2018 18:00:00 1,5 0,5 7 4 25 14 S 999,2 24
20.01.2018 17:00:00 0,9 0,4 11 6 25 14 SSE 998,9 10
20.01.2018 16:00:00 0,2 -0,1 14 8 - - SE 999,6 2,9
20.01.2018 15:00:00 0,2 0,0 11 6 14 8 SE 1000,4 1,5
20.01.2018 14:00:00 0,7 0,3 11 6 22 12 SE 1001,2 4,1
20.01.2018 13:00:00 1,5 0,7 11 6 - - SSE 1002,9 5
20.01.2018 12:00:00 2,0 1,1 18 10 32 18 S 1004,5 7
20.01.2018 11:00:00 2,5 1,2 18 10 29 16 S 1005,3 13
20.01.2018 10:00:00 2,6 1,5 18 10 - - S 1006,4 35
20.01.2018 09:00:00 2,4 1,2 22 12 32 18 S 1007,2 35
20.01.2018 08:00:00 2,2 0,4 18 10 40 21 SSW 1008,0 35
20.01.2018 07:00:00 2,4 0,9 25 14 - - SW 1008,7 35
20.01.2018 06:00:00 2,4 0,7 22 12 32 18 SSW 1009,3 35
20.01.2018 05:00:00 2,4 0,9 22 12 29 16 SSW 1009,9 30
20.01.2018 04:00:00 2,2 0,7 22 12 - - SW 1010,7 30
20.01.2018 03:00:00 1,9 0,6 22 12 36 19 SW 1011,1 30
20.01.2018 02:00:00 1,8 0,5 22 12 36 19 SSW 1011,1 30
20.01.2018 01:00:00 1,2 0,2 25 14 - - SW 1011,4 45
20.01.2018 00:00:00 1,5 -0,1 25 14 40 21 SW 1011,4 45
19.01.2018 23:00:00 1,6 -0,1 22 12 29 16 SW 1011,3 45
19.01.2018 22:00:00 1,4 -0,2 22 12 - - SW 1011,2 45
19.01.2018 21:00:00 2,1 0,2 18 10 29 16 SW 1011,0 50
19.01.2018 20:00:00 2,3 -0,2 18 10 25 14 SW 1010,8 40
19.01.2018 19:00:00 2,0 0,1 16 9 - - SW 1010,8 10
19.01.2018 18:00:00 2,6 0,1 15 8 25 14 SSW 1010,4 10
19.01.2018 17:00:00 3,0 0,0 18 10 - - WSW - 10
19.01.2018 16:00:00 3,6 1,0 15 8 - - WSW 1010,7 10
19.01.2018 15:00:00 3,9 -0,5 22 12 36 19 WSW 1010,6 25
19.01.2018 14:00:00 4,0 0,0 24 13 - - WSW - 10
19.01.2018 13:00:00 4,0 1,2 29 16 - - WSW 1010,7 25
19.01.2018 12:00:00 3,2 0,9 21 11 32 18 WSW 1011,2 10
19.01.2018 11:00:00 2,4 0,8 21 11 29 16 SW 1011,1 10
19.01.2018 10:00:00 2,0 0,0 16 9 - - SSW - 10
19.01.2018 09:00:00 1,1 0,0 18 10 36 19 SW 1010,2 10
19.01.2018 08:00:00 1,5 0,3 28 15 40 21 WSW 1009,2 10
19.01.2018 07:00:00 2,2 0,8 22 12 - - WSW 1008,6 10
19.01.2018 06:00:00 2,0 1,1 22 12 36 19 W 1007,8 12
19.01.2018 05:00:00 2,2 1,2 24 13 43 23 WSW 1007,3 7
19.01.2018 04:00:00 2,2 0,6 26 14 - - W 1006,6 10
19.01.2018 03:00:00 2,2 1,3 18 10 29 16 WSW 1006,1 10
19.01.2018 02:00:00 1,9 1,0 18 10 25 14 WSW 1005,7 10
19.01.2018 01:00:00 1,7 1,2 16 9 - - SW 1005,2 10
19.01.2018 00:00:00 1,1 0,9 11 6 18 10 SW 1004,9 10
18.01.2018 23:00:00 1,0 0,6 11 6 32 18 NNW 1004,5 6
18.01.2018 22:00:00 2,7 1,9 4 2 - - NE 1003,4 4,0
18.01.2018 21:00:00 4,5 2,3 18 10 25 14 SW 1003,4 10
18.01.2018 20:00:00 4,0 1,6 8 4 22 12 SW 1003,4 10
18.01.2018 19:00:00 4,5 1,2 15 8 - - WSW 1003,3 10
18.01.2018 18:00:00 4,9 1,8 13 7 29 16 W 1003,6 10
18.01.2018 17:00:00 5,2 1,2 11 6 32 18 W 1003,3 50
18.01.2018 16:00:00 6,3 0,4 21 11 - - W 1003,0 10
18.01.2018 15:00:00 6,5 1,0 22 12 50 27 W 1002,6 10
18.01.2018 14:00:00 6,6 0,4 35 19 65 35 W 1002,1 10
18.01.2018 13:00:00 7,2 1,0 32 18 - - W 1001,1 25
18.01.2018 12:00:00 7,3 -0,2 39 21 83 45 WNW 999,6 10
18.01.2018 11:00:00 8,7 2,4 58 31 90 49 W 997,0 25
18.01.2018 10:00:00 9,5 4,5 57 31 - - WSW 994,9 10
18.01.2018 09:00:00 9,0 5,9 55 30 79 43 WSW 994,3 10
18.01.2018 08:00:00 7,6 6,3 44 24 68 37 SW 994,2 10
18.01.2018 07:00:00 5,7 4,7 48 26 - - SW 995,4 5
18.01.2018 06:00:00 4,0 2,8 46 25 86 47 SSW 997,1 7
18.01.2018 05:00:00 3,6 2,3 44 24 72 39 SSW 998,7 6
18.01.2018 04:00:00 3,4 1,9 29 16 - - S 1002,3 10
18.01.2018 03:00:00 3,5 1,8 29 16 47 25 SSW 1005,2 15
18.01.2018 02:00:00 4,0 1,9 29 16 40 21 SSW 1007,0 10
18.01.2018 01:00:00 3,5 1,5 25 14 - - SSW 1008,6 15
18.01.2018 00:00:00 3,3 0,7 24 13 32 18 SW 1009,5 10
17.01.2018 23:00:00 3,1 0,3 22 12 36 19 WSW 1010,1 10
17.01.2018 22:00:00 2,9 0,0 24 13 - - SW 1010,2 10
17.01.2018 21:00:00 3,5 0,2 22 12 40 21 WSW 1010,0 10
17.01.2018 20:00:00 3,5 -0,8 29 16 40 21 WSW 1009,7 10
17.01.2018 19:00:00 3,6 -0,7 24 13 - - WSW 1009,9 10
17.01.2018 18:00:00 3,3 -0,9 28 15 47 25 WSW 1009,5 10
17.01.2018 17:00:00 3,8 -1,1 31 17 47 25 WSW 1008,8 10
17.01.2018 16:00:00 3,7 -0,5 31 17 - - W 1007,8 10
17.01.2018 15:00:00 3,2 0,4 34 18 65 35 W 1006,7 10
17.01.2018 14:00:00 3,4 0,3 35 19 58 31 WSW 1005,8 10
17.01.2018 13:00:00 3,1 -0,4 34 18 - - W 1005,3 10
17.01.2018 12:00:00 1,7 0,2 29 16 61 33 W 1005,0 10
17.01.2018 11:00:00 2,0 -0,7 31 17 50 27 WSW 1003,9 10
17.01.2018 10:00:00 1,0 -2,0 28 15 - - WSW - 10
17.01.2018 09:00:00 0,2 -1,7 16 9 50 27 W 1002,0 10
17.01.2018 08:00:00 1,4 -2,1 31 17 47 25 W 1000,4 10
17.01.2018 07:00:00 1,4 -1,9 29 16 - - W 999,0 10
17.01.2018 06:00:00 2,0 -0,8 34 18 47 25 W 997,8 10
17.01.2018 05:00:00 2,1 -0,2 26 14 47 25 W 996,3 10
17.01.2018 04:00:00 2,2 0,0 31 17 - - WSW 996,2 10
17.01.2018 03:00:00 2,5 0,3 34 18 47 25 WSW 995,7 10
17.01.2018 02:00:00 2,2 0,9 31 17 43 23 WSW 995,3 10
17.01.2018 01:00:00 1,9 0,8 29 16 - - WSW 995,3 10
17.01.2018 00:00:00 2,8 1,3 26 14 40 21 WSW 995,5 10
16.01.2018 23:00:00 3,8 1,4 28 15 40 21 SW 995,6 10
16.01.2018 22:00:00 3,7 0,8 26 14 - - SW 996,2 10
16.01.2018 21:00:00 3,0 0,8 22 12 32 18 SW 996,6 10
16.01.2018 20:00:00 3,7 1,6 24 13 47 25 WSW 996,7 10
16.01.2018 19:00:00 4,1 0,2 29 16 - - WSW 996,4 10
16.01.2018 18:00:00 4,3 0,3 31 17 47 25 WSW 996,6 10
16.01.2018 17:00:00 4,6 0,9 32 18 54 29 WSW 996,7 30
16.01.2018 16:00:00 5,4 -0,4 36 19 - - W 996,4 30
16.01.2018 15:00:00 5,5 0,3 29 16 58 31 W 996,1 12
16.01.2018 14:00:00 5,9 0,8 36 19 61 33 W 996,3 12
16.01.2018 13:00:00 6,0 1,7 36 19 - - W 996,4 12
16.01.2018 12:00:00 6,0 2,9 36 19 54 29 WSW 996,3 30
16.01.2018 11:00:00 6,0 2,6 32 18 58 31 W 995,4 30

tt = Température de l'air
td = dewpoint
ff = Vitesse du vent
fx = gusts
dd = Direction du vent
ppp = reduced air pressure
vv = visibility

stations d'obs. à proximité